Location: Hundeshagen
(51.4340°N, 10.2807°E)
Time: 03:52:05
(UTC+00:00)

Daily predictions for brighter satellites

Satellite Brightness Start Highest point End
(mag) Time Altitude Azimuth Time Altitude Azimuth Time Altitude Azimuth
NOSS 8 (E) 4.3 00:02:07 33° SSW 00:03:13 55° SE 00:06:08 10° NE
ATLAS CENTAUR R/B 4.2 00:08:22 10° WSW 00:14:44 84° NNW 00:32:42 10° ENE
Cosmos 1825 2.4 00:13:02 24° S 00:15:07 62° E 00:18:52 10° NNE
Cosmos 540 Rocket 4.1 00:15:11 19° SSE 00:18:31 44° ESE 00:23:21 10° NE
Cosmos 990 Rocket 4.2 00:14:14 10° NNW 00:19:17 53° WSW 00:22:37 20° S
Cosmos 1408 2.7 00:19:18 25° SSW 00:21:15 65° WNW 00:24:56 10° N
Cosmos 1437 4.4 00:19:39 10° NNE 00:22:03 24° ENE 00:24:25 10° SE
Cosmos 1242 Rocket 3.2 00:19:44 10° N 00:23:16 51° ENE 00:26:09 14° SSE
Cosmos 1656 Rocket 3.7 00:19:23 10° NNW 00:25:06 75° WSW 00:30:16 13° SSE
SL-16 R/B 2.9 00:19:56 12° SW 00:25:07 49° NW 00:30:39 10° NNE
Cosmos 2221 2.6 00:20:52 10° N 00:25:12 77° ENE 00:28:24 17° SSE
Cosmos 405 Rocket 2.5 00:23:36 25° SSW 00:25:37 90° N 00:29:20 10° NNE
Cosmos 841 Rocket 4.2 00:23:03 18° S 00:26:33 44° ESE 00:31:25 10° NE
Cosmos 2058 3.1 00:24:22 21° S 00:26:57 65° E 00:31:01 10° NNE
USA 229 DEB 3.6 00:22:35 17° SW 00:27:47 80° SE 00:34:45 10° NE
USA 229 3.6 00:22:43 17° SW 00:27:53 80° SE 00:34:51 10° NE
X-37B 1.8 00:28:47 24° SSE 00:28:47 24° SSE 00:31:04 10° ESE
Meteor 2-13 Rocket 4.5 00:23:59 19° SSW 00:28:31 79° W 00:34:43 10° N
Cosmos 2237 Rocket 4.2 00:24:09 10° W 00:28:41 24° NW 00:33:15 10° NNE
Cosmos 1898 Rocket 3.8 00:27:30 10° NNW 00:32:35 51° WSW 00:36:10 19° S
Cosmos 1937 Rocket 3.6 00:27:38 10° NNW 00:32:57 68° WSW 00:37:19 15° S
Cosmos 2369 Rocket 2.7 00:29:41 10° NW 00:35:05 44° WSW 00:38:58 18° S
Nadezhda 4 Rocket 4.0 00:30:48 17° S 00:35:36 76° E 00:41:44 10° NNE
NOSS 8 (F) 4.3 00:33:59 20° WSW 00:35:59 66° NW 00:38:57 10° NE
NOSS 3-1 (C) 3.6 00:31:10 11° WSW 00:36:31 69° NW 00:43:10 10° NE
Aureole 3 Rocket 3.5 00:33:13 10° N 00:36:55 57° ENE 00:41:52 10° SSE
SJ 16-02 3.3 00:35:58 10° WNW 00:38:21 15° W 00:40:01 12° WSW
YAOGAN 11 4.4 00:35:34 20° S 00:38:27 55° WSW 00:42:55 10° NNW
Cosmos 1356 4.2 00:37:29 21° SW 00:39:22 40° WNW 00:42:36 10° N
USA 307 4.4 00:38:07 17° SSE 00:39:48 21° SE 00:43:02 10° E
FALCON 9 DEB 3.1 00:36:54 10° WNW 00:40:03 73° NNE 00:43:11 10° E
CREW DRAGON DEMO-1 DEB 2.4 00:40:05 37° SSW 00:40:43 51° SSE 00:43:07 10° E
USA 215 3.7 00:38:07 10° ENE 00:44:34 63° NNW 00:51:00 10° W
NOSS 2-3 (E) 4.1 00:42:31 12° WSW 00:46:24 61° NW 00:51:35 10° NE
NOSS 3-1 (A) 3.4 00:42:41 15° SW 00:47:23 86° NW 00:54:00 10° NE
CZ-4 R/B 3.8 00:45:25 10° NNE 00:50:04 74° WNW 00:53:33 18° SSW
ATLAS 5 CENTAUR R/B 2.9 00:48:04 15° SSE 00:50:28 26° ESE 00:54:06 10° ENE
Helios 1B rocket 3.4 00:46:55 10° NNE 00:50:48 39° E 00:54:08 13° SSE
USA 308 4.2 00:53:26 17° S 00:55:36 26° SE 00:59:10 10° E
Cosmos 1814 Rocket 4.5 00:51:51 15° S 00:55:55 53° ESE 01:00:57 10° NNE
Cosmos 1633 3.1 00:53:22 16° SSE 00:55:57 50° E 00:59:24 10° NNE
ADEOS Rocket 3.8 00:49:17 10° SE 00:56:20 61° ENE 01:02:43 10° N
FALCON 9 DEB 2.7 00:54:01 10° WNW 00:57:07 87° SSW 01:00:12 10° ESE
CZ-3B R/B 2.9 00:48:20 10° WNW 00:57:53 67° N 01:00:56 10° E
UNK 3.7 00:54:25 11° SSE 00:58:55 88° ENE 01:03:35 10° NNW
Cosmos 1606 2.7 00:57:25 10° NNW 01:01:17 69° W 01:04:12 16° S
Helios 1A 3.8 01:00:06 18° SSW 01:02:39 35° W 01:06:32 10° NNW
NOSS 8 (H) 4.4 01:00:24 16° WSW 01:02:39 61° NW 01:05:37 10° NE
FALCON 9 DEB 2.8 01:00:46 10° WNW 01:03:55 88° NNE 01:07:02 10° ESE
Cosmos 1570 Rocket 4.3 01:01:44 15° S 01:05:59 63° ESE 01:11:10 10° NNE
SL-16 R/B 2.5 01:00:06 10° SSE 01:06:18 75° WSW 01:12:30 10° NNW
Cosmos 1933 4.1 01:02:41 10° N 01:06:43 53° ENE 01:10:43 10° SSE
FALCON 9 DEB 2.7 01:04:15 10° WNW 01:07:22 82° SSW 01:10:28 10° ESE
Cosmos 372 Rocket 4.1 01:02:45 10° NNW 01:07:55 60° WSW 01:13:03 10° S
Cosmos 1125 Rocket 4.2 01:05:22 10° NNW 01:10:34 58° ENE 01:15:47 10° SE
USA 305 3.7 01:10:31 17° SSW 01:13:19 36° SE 01:17:13 10° ENE
USA 290 2.8 01:11:15 17° S 01:13:32 49° ESE 01:16:40 10° NE
Lacrosse 4 Rocket 1.3 01:10:20 10° NW 01:14:26 66° WSW 01:18:26 10° SSE
Cosmos 1151 Rocket 4.4 01:12:00 10° N 01:16:00 37° ENE 01:19:57 10° SE
CZ-4C R/B 4.3 01:14:33 10° SE 01:16:26 12° ESE 01:18:28 10° E
Meteor 1-28 Rocket 4.4 01:12:52 10° SE 01:16:29 44° ENE 01:20:08 10° N
Cosmos 1092 Rocket 4.0 01:11:05 13° S 01:16:38 90° W 01:22:50 10° N
CENTAUR R/B 4.1 01:10:55 10° NW 01:18:24 53° NNE 01:26:53 10° ESE
Cosmos 2098 Rocket 3.6 01:15:08 15° SSW 01:19:30 54° WNW 01:23:43 10° N
Resurs 1-4 Rocket 2.1 01:14:16 10° NNE 01:19:36 85° WNW 01:24:23 13° SSW
Cosmos 1437 Rocket 4.2 01:17:01 10° NW 01:20:05 22° W 01:22:18 14° SW
Cosmos 1763 Rocket 4.4 01:15:44 11° SW 01:20:18 40° NW 01:25:11 10° NNE
BREEZE-M R/B 3.8 01:18:12 15° SSW 01:20:32 31° SE 01:25:27 10° E
NOSS 5 (C) 4.2 01:17:43 10° NW 01:20:44 71° SW 01:24:16 10° SE
Cosmos 2208 Rocket 4.3 01:16:33 13° SSW 01:21:20 69° ESE 01:26:46 10° NNE
Meteor 2-19 Rocket 4.5 01:16:27 13° SSW 01:22:02 83° W 01:28:13 10° N
Meteor 1-29 3.9 01:20:23 10° NNE 01:23:39 42° E 01:26:53 10° S
SL-4 R/B 1.6 01:22:46 10° W 01:26:31 89° S 01:30:02 10° E
Landsat 4 4.5 01:25:49 10° NNE 01:29:30 47° E 01:33:08 10° S
MINOTAUR 4 R/B 4.0 01:26:52 10° SSE 01:30:24 79° WSW 01:33:57 10° NNW
NPP 3.7 01:25:21 10° NNE 01:30:47 86° WNW 01:35:57 11° SSW
ADEOS II 2.5 01:26:01 10° NNE 01:31:15 62° ESE 01:36:27 10° S
NOSS 2-2 (D) 3.4 01:30:21 14° SSW 01:33:06 54° SE 01:36:50 10° NE
Lacrosse 5 rocket 1.6 01:31:35 10° WNW 01:35:09 59° NNE 01:38:47 10° ESE
USA 306 3.3 01:32:05 13° SW 01:35:37 47° SSE 01:39:43 10° ENE
Cosmos 921 Rocket 3.2 01:32:38 13° SW 01:36:15 57° WNW 01:40:24 10° NNE
FALCON 9 DEB 4.1 01:33:40 10° W 01:36:33 26° SW 01:39:25 10° SSE
Meteor 2-3 Rocket 4.0 01:31:55 10° S 01:37:28 68° E 01:43:01 10° NNE
CZ-2D R/B 2.3 01:33:08 10° N 01:38:18 64° WNW 01:43:15 11° SSW
Cosmos 1943 3.8 01:33:25 10° SW 01:38:52 50° NW 01:44:24 10° NNE
Alouette 2 Rocket 3.7 01:36:15 10° N 01:39:47 60° ENE 01:43:42 10° SSE
IDEFIX/ARIANE 42P 3.4 01:40:32 10° NNE 01:45:36 47° E 01:50:37 10° S
ASTEX 1 4.1 01:41:39 10° SSE 01:46:28 55° ENE 01:51:17 10° N
Cosmos 2151 3.1 01:44:56 11° SSW 01:48:59 65° WNW 01:53:11 10° N
AQUA 3.9 01:45:40 10° N 01:50:26 69° WNW 01:55:10 10° SSW
Cosmos 1825 4.4 01:48:54 10° W 01:51:01 14° WNW 01:53:08 10° NNW
EXPRESS MD2 4.5 01:43:05 10° WSW 01:51:50 60° SSE 01:56:04 10° E
Cosmos 1076 Rocket 4.4 01:49:46 11° SW 01:53:34 36° WNW 01:57:31 10° N
Cosmos 1437 4.3 01:52:15 10° NW 01:54:07 16° W 01:55:51 11° SW
Meteor 1-26 Rocket 4.4 01:48:38 10° NNW 01:54:27 74° W 02:00:23 10° S
Cosmos 1656 4.1 01:57:28 10° NNW 02:03:12 73° ENE 02:08:53 10° SE
X-37B 2.1 02:02:08 10° WSW 02:04:27 19° SSW 02:06:46 10° SSE
CBERS-1 4.2 01:59:49 10° NNE 02:04:59 74° ESE 02:10:07 10° S
IRS-1D 3.6 02:00:01 10° NNE 02:05:14 89° ESE 02:10:17 10° SSW
BREEZE-M DEB (TANK) 1.8 02:04:28 10° W 02:06:41 37° SSW 02:09:06 10° ESE
Cosmos 1812 3.0 02:05:14 10° N 02:09:05 70° ENE 02:12:54 10° SSE
Cosmos 1553 Rocket 4.2 02:03:00 10° NNW 02:09:13 61° W 02:15:18 10° S
NOSS 2-2 (E) 3.6 02:08:31 10° WSW 02:11:59 57° NW 02:16:01 10° NE
Cosmos 2292 Rocket 3.0 02:10:14 10° SSW 02:13:08 50° WNW 02:16:06 10° N
SL-08 R/B 3.9 02:09:26 10° SSE 02:14:04 62° ENE 02:18:47 10° N
Cosmos 1697 Rocket 3.8 02:09:04 10° NNW 02:14:37 52° NE 02:20:08 10° SE
S3M 4.0 02:09:11 10° NNW 02:15:20 77° W 02:21:32 10° S
Cosmos 1782 3.1 02:12:03 10° NNW 02:15:57 49° W 02:19:49 10° S
MSX 4.3 02:12:16 10° NNE 02:18:01 64° ESE 02:23:43 10° S
USA 281 3.3 02:12:01 10° SSE 02:18:34 68° WSW 02:25:09 10° NNW
